Find UWE-1

NORAD ID: 28892 Int'l Des: 2005-043 Owner: WURZ Country: D operational
LEOCIRCULARRETROGRADESSO

Live Position

Loading 3D Globe...

About UWE-1

Description loading...

Upcoming Passes

Passes for default location (London). Set your location on the main map for personalized predictions.

Altitude History

Loading altitude history...

Two-Line Element Set

1 28892U 05043C 26108.17788514 .00000879 00000-0 14836-3 0 9998
2 28892 98.2995 263.1276 0014532 44.7231 315.5145 14.71963665 92931
Epoch: Apr 18, 2026 • Age: 40 hours

Current Status

Altitude 688.4 km
Velocity 7.51 km/s
Sub-Earth Point -79.59°S, 158.87°E
Launch Date Oct 27, 2005
Age 20.4 years
Type other

Technical Details

Classification Payload
Mass 1.00 kg
Dry Mass 1.00 kg
Total Mass 1.00 kg
Length 0.10 m
Diameter 0.10 m
Span 0.10 m
Shape Box
Manufacturer WURZ
Bus Type Cubesat 1U
Phase Status In Orbit
Owner/State WURZ/D

Most Searched